Weather Service Report


632 
ASUS45 KCYS 010010
RWRWY 

WYOMING REGIONAL WEATHER ROUNDUP
NATIONAL WEATHER SERVICE CHEYENNE WY
600 PM MDT SUN APR 30 2017

NOTE:  "FAIR" INDICATES FEW OR NO CLOUDS BELOW 12,000 FEET
WITH NO SIGNIFICANT WEATHER AND/OR OBSTRUCTIONS TO VISIBILITY.

WYZ001-010100-
YELLOWSTONE NATIONAL PARK
  
CITY           SKY/WX    TMP DP  RH WIND       PRES   REMARKS
LK YELLOWSTONE   N/A     39  26  59 VRB7      30.04S WCI  34          
6HR MIN TEMP:  37; 6HR MAX TEMP:  42; 6HR PCP:  0.01;                

W YELLOWSTONE  NOT AVBL                                               

$$
WYZ002>013-054>058-071-098>099-010100-
NORTHERN WYOMING
  
CITY           SKY/WX    TMP DP  RH WIND       PRES   REMARKS
JACKSON        CLOUDY    45  30  57 S9        30.05F                  
CODY           PTSUNNY   55  28  35 VRB6G21   29.92S                  
GREYBULL       CLOUDY    63  26  24 NE7       29.86F                  
6HR MIN TEMP:  54; 6HR MAX TEMP:  64;                                

WORLAND        PTSUNNY   59  29  31 S3        29.88F                  
6HR MIN TEMP:  54; 6HR MAX TEMP:  61;                                

SHERIDAN       PTSUNNY   57  35  43 SW7       29.89S                  
6HR MIN TEMP:  53; 6HR MAX TEMP:  59;                                

BUFFALO        CLOUDY    52  26  36 W3        29.93S                  
6HR MIN TEMP:  48; 6HR MAX TEMP:  55;                                

GILLETTE       FAIR      56  33  42 NW9       29.90R                  
6HR MIN TEMP:  45; 6HR MAX TEMP:  57;                                

HULETT         FAIR      55  25  30 W6        29.89S                  
NEWCASTLE      FAIR      57  19  23 NW22      29.87S                  

$$
WYZ014>020-022>026-101>103-010100-
CENTRAL WYOMING
  
CITY           SKY/WX    TMP DP  RH WIND       PRES   REMARKS
BIG PINEY      FAIR      48  28  46 NW18G28   30.07R                  
6HR MIN TEMP:  47; 6HR MAX TEMP:  53;                                

PINEDALE       CLOUDY    43  28  56 NW23G30   30.07R                  
DUBOIS         CLOUDY    45  28  53 NW14G22   30.00S                  
LANDER         CLOUDY    52  30  43 SE9       29.92R                  
6HR MIN TEMP:  45; 6HR MAX TEMP:  56;                                

RIVERTON       FAIR      55  30  38 SE6       29.93R                  
6HR MIN TEMP:  45; 6HR MAX TEMP:  57;                                

CASPER         FAIR      55  21  26 W17       29.92S                  
6HR MIN TEMP:  52; 6HR MAX TEMP:  59;                                

DOUGLAS        PTSUNNY   55  24  30 NW18G25   29.89S                  
6HR MIN TEMP:  53; 6HR MAX TEMP:  60;                                


$$
WYZ021-027>030-104>119-010100-
SOUTHERN WYOMING
  
CITY           SKY/WX    TMP DP  RH WIND       PRES   REMARKS
EVANSTON       CLOUDY    44  26  49 W16       30.12S                  
6HR MIN TEMP:  44; 6HR MAX TEMP:  50;                                

KEMMERER         N/A     43  30  61 W13       30.11R                  
FORT BRIDGER   MOCLDY    48  26  43 W22G30    30.12S                  
ROCK SPRINGS   CLOUDY    51  26  37 W17       30.03R                  
6HR MIN TEMP:  49; 6HR MAX TEMP:  56;                                

DIXON            N/A     52  24  34 W14G20    30.03S                  
RAWLINS        FAIR      53  25  33 W17       29.96F                  
6HR MIN TEMP:  45; 6HR MAX TEMP:  53;                                

SARATOGA       CLOUDY    50  19  29 NW14G21   29.98S                  
LARAMIE        FAIR      47  14  26 NW25G36   29.93R                  
6HR MIN TEMP:  45; 6HR MAX TEMP:  51;                                

CHEYENNE       CLOUDY    53  17  24 NW25G37   29.99R                  
6HR MIN TEMP:  48; 6HR MAX TEMP:  55;                                

TORRINGTON     FAIR      59  16  18 N17G29    29.84S                  
6HR MIN TEMP:  52; 6HR MAX TEMP:  60;                                

PINE BLUFFS    FAIR      55  21  26 N21G31    29.84S                  

$$
  

Return to Home page


Western Regional Climate Center, wrcc@dri.edu